| time (UTC) | temp C | wind direction | speed KPH | gust KPH | rain 1hr cm | rain 24hr cm | rain mn cm | humidity % | barometer mb |
| 20260506061506 | -17 | 234 | 0.0 | 4.8 | 0.00 | 0.25 | 0.00 | 1007.1 | |
| 20260506044543 | -17 | 243 | 0.0 | 0.0 | 0.00 | 0.25 | 0.00 | 1007.1 | |
| 20260506043031 | -17 | 243 | 0.0 | 0.0 | 0.00 | 0.25 | 0.00 | 1007.2 | |
| 20260506041527 | -17 | 243 | 0.0 | 0.0 | 0.00 | 0.25 | 0.00 | 1007.2 | |
| 20260506040047 | -17 | 243 | 1.6 | 4.8 | 0.00 | 0.25 | 0.00 | 1007.2 | |
| 20260506034518 | -17 | 243 | 0.0 | 0.0 | 0.00 | 0.25 | 0.00 | 1007.0 | |
| 20260506033014 | -17 | 243 | 0.0 | 1.6 | 0.00 | 0.25 | 0.00 | 1007.5 | |
| 20260506031524 | -17 | 243 | 0.0 | 0.0 | 0.00 | 0.25 | 0.00 | 1007.3 | |
| 20260506030006 | -17 | 243 | 0.0 | 0.0 | 0.00 | 0.25 | 0.00 | 1007.2 | |
| 20260506024503 | -17 | 243 | 0.0 | 0.0 | 0.00 | 0.25 | 0.00 | 1007.3 | |
| 20260506023059 | -17 | 243 | 0.0 | 0.0 | 0.00 | 0.25 | 0.00 | 1007.5 | |
| 20260506021557 | -17 | 243 | 3.2 | 4.8 | 0.00 | 0.25 | 0.00 | 1007.4 | |
| 20260506020048 | -17 | 243 | 0.0 | 1.6 | 0.00 | 0.25 | 0.00 | 1007.3 | |
| 20260506014544 | -17 | 243 | 0.0 | 1.6 | 0.00 | 0.25 | 0.00 | 1007.3 | |
| 20260506013039 | -17 | 243 | 0.0 | 4.8 | 0.00 | 0.25 | 0.00 | 1007.4 | |
| 20260506011537 | -17 | 243 | 0.0 | 4.8 | 0.00 | 0.25 | 0.00 | 1007.5 | |
| 20260506010031 | -17 | 243 | 0.0 | 6.4 | 0.00 | 0.25 | 0.00 | 1007.6 | |
| 20260506004527 | -17 | 269 | 0.0 | 12.9 | 0.00 | 0.25 | 0.00 | 1007.7 | |
| 20260506003022 | -17 | 260 | 1.6 | 11.3 | 0.00 | 0.25 | 0.00 | 1007.7 | |
| 20260506001517 | -17 | 268 | 4.8 | 17.7 | 0.00 | 0.25 | 0.00 | 1007.6 | |
| 20260506000012 | -17 | 261 | 4.8 | 16.1 | 0.00 | 0.25 | 0.00 | 1007.5 | |
| 20260505234508 | -17 | 267 | 6.4 | 17.7 | 0.00 | 0.25 | 0.00 | 1007.5 | |
| 20260505233004 | -17 | 292 | 8.0 | 19.3 | 0.00 | 0.25 | 0.00 | 1007.4 | |
| 20260505231606 | -17 | 271 | 4.8 | 14.5 | 0.00 | 0.25 | 0.00 | 1007.4 | |
| 20260505230055 | -17 | 279 | 1.6 | 16.1 | 0.00 | 0.25 | 0.00 | 1007.2 | |
| 20260505224551 | -17 | 271 | 4.8 | 14.5 | 0.00 | 0.25 | 0.00 | 1007.1 | |
| 20260505223052 | -17 | 283 | 3.2 | 11.3 | 0.00 | 0.25 | 0.00 | 1006.9 | |
| 20260505221541 | -17 | 283 | 0.0 | 3.2 | 0.00 | 0.25 | 0.00 | 1006.5 | |
| 20260505220041 | -17 | 283 | 3.2 | 8.0 | 0.00 | 0.25 | 0.00 | 1006.5 | |
| 20260505214539 | -17 | 283 | 0.0 | 11.3 | 0.00 | 0.25 | 0.25 | 1006.3 | |
| 20260505213028 | -17 | 293 | 1.6 | 11.3 | 0.00 | 0.25 | 0.25 | 1006.3 | |
| 20260505211524 | -17 | 295 | 0.0 | 3.2 | 0.00 | 0.25 | 0.25 | 1006.0 | |
| 20260505210024 | -17 | 295 | 0.0 | 6.4 | 0.00 | 0.25 | 0.25 | 1005.8 | |
| 20260505204515 | -17 | 295 | 0.0 | 1.6 | 0.00 | 0.25 | 0.25 | 1005.7 | |
| 20260505203011 | -17 | 295 | 0.0 | 4.8 | 0.00 | 0.25 | 0.25 | 1005.6 | |
| 20260505201507 | -17 | 295 | 0.0 | 4.8 | 0.00 | 0.25 | 0.25 | 1005.4 | |
| 20260505200002 | -17 | 296 | 0.0 | 6.4 | 0.00 | 0.25 | 0.25 | 1005.1 | |
| 20260505194612 | -17 | 296 | 3.2 | 8.0 | 0.10 | 0.25 | 0.25 | 1005.0 | |
| 20260505193054 | -17 | 293 | 3.2 | 14.5 | 0.23 | 0.25 | 0.25 | 1005.0 | |
| 20260505191549 | -17 | 289 | 0.0 | 1.6 | 0.25 | 0.25 | 0.25 | 1004.7 | |
| 20260505190045 | -17 | 289 | 0.0 | 14.5 | 0.25 | 0.25 | 0.25 | 1004.3 | |
| 20260505184540 | -17 | 325 | 9.7 | 25.7 | 0.15 | 0.15 | 0.15 | 1003.8 | |
| 20260505183039 | -17 | 309 | 14.5 | 32.2 | 0.03 | 0.03 | 0.03 | 1003.9 | |
| 20260505181531 | -17 | 284 | 19.3 | 37.0 | 0.00 | 0.00 | 0.00 | 1003.7 | |
| 20260505180026 | -17 | 319 | 19.3 | 41.8 | 0.00 | 0.00 | 0.00 | 1003.4 | |
| 20260505174522 | -17 | 285 | 22.5 | 51.5 | 0.00 | 0.00 | 0.00 | 1003.2 | |
| 20260505173018 | -17 | 276 | 27.4 | 51.5 | 0.00 | 0.00 | 0.00 | 1002.7 | |
| 20260505171518 | -17 | 86 | 0.0 | 0.0 | 0.00 | 0.00 | 0.00 | 1001.8 | |
| 20260505170015 | -17 | 86 | 0.0 | 3.2 | 0.00 | 0.00 | 0.00 | 1001.7 | |
| 20260505164505 | -17 | 86 | 0.0 | 3.2 | 0.00 | 0.00 | 0.00 | 1001.7 | |
| 20260505163107 | -17 | 86 | 0.0 | 3.2 | 0.00 | 0.00 | 0.00 | 1001.8 | |
| 20260505161614 | -17 | 86 | 0.0 | 3.2 | 0.00 | 0.00 | 0.00 | 1002.0 | |
| 20260505153043 | -17 | 86 | 0.0 | 4.8 | 0.00 | 0.00 | 0.00 | 1002.2 | |
| 20260505151540 | -17 | 86 | 0.0 | 4.8 | 0.00 | 0.00 | 0.00 | 1002.3 | |
| 20260505130112 | -17 | 92 | 1.6 | 11.3 | 0.00 | 0.00 | 0.00 | 1003.7 | |
| 20260505124600 | -17 | 83 | 3.2 | 8.0 | 0.00 | 0.00 | 0.00 | 1003.9 | |
| 20260505123050 | -17 | 11 | 0.0 | 11.3 | 0.00 | 0.00 | 0.00 | 1004.2 | |
| 20260505121547 | -17 | 360 | 3.2 | 14.5 | 0.00 | 0.00 | 0.00 | 1004.4 | |
| 20260505120040 | -17 | 321 | 8.0 | 16.1 | 0.00 | 0.00 | 0.00 | 1004.6 | |
| 20260505114536 | -17 | 309 | 9.7 | 16.1 | 0.00 | 0.00 | 0.00 | 1004.8 | |
| 20260505113032 | -17 | 321 | 4.8 | 12.9 | 0.00 | 0.00 | 0.00 | 1004.8 | |
| 20260505111534 | -17 | 330 | 3.2 | 19.3 | 0.00 | 0.00 | 0.00 | 1005.1 | |
| 20260505101509 | -17 | 297 | 0.0 | 11.3 | 0.00 | 0.00 | 0.00 | 1005.9 | |
| 20260505100009 | -17 | 322 | 4.8 | 14.5 | 0.00 | 0.00 | 0.00 | 1006.1 | |
| 20260505094601 | -17 | 314 | 1.6 | 8.0 | 0.00 | 0.00 | 0.00 | 1006.2 | |
| 20260505093107 | -17 | 302 | 4.8 | 14.5 | 0.00 | 0.00 | 0.00 | 1006.3 | |
| 20260505091553 | -17 | 282 | 4.8 | 11.3 | 0.00 | 0.00 | 0.00 | 1006.5 | |
| 20260505090047 | -17 | 331 | 1.6 | 9.7 | 0.00 | 0.00 | 0.00 | 1006.5 | |
| 20260505084543 | -17 | 57 | 1.6 | 6.4 | 0.00 | 0.00 | 0.00 | 1006.7 | |
| 20260505083039 | -17 | 57 | 0.0 | 4.8 | 0.00 | 0.00 | 0.00 | 1006.7 | |
| 20260505081543 | -17 | 57 | 1.6 | 8.0 | 0.00 | 0.00 | 0.00 | 1006.8 | |
| 20260505080033 | -17 | 340 | 0.0 | 3.2 | 0.00 | 0.00 | 0.00 | 1007.0 | |
| 20260505074526 | -17 | 318 | 0.0 | 6.4 | 0.00 | 0.00 | 0.00 | 1007.1 | |
| 20260505073025 | -17 | 313 | 1.6 | 8.0 | 0.00 | 0.00 | 0.00 | 1007.2 | |
| 20260505071534 | -17 | 311 | 0.0 | 4.8 | 0.00 | 0.00 | 0.00 | 1007.2 |